User: anonymous   Login
Location: Unspecified
(0.0000°N, 0.0000°E)
Time: 18:37:44
(UTC+00:00)
Language:

PLEIADES HR1 - Orbit

View from above orbital plane
View from above orbital plane
View from above satellite
View from above satellite

Ground track
Ground track

The orbit data is extracted from the following two-line orbital elements,

1 38012U 11076F   17207.78917179 -.00000008 +00000-0 +80690-5 0  9992
2 38012 098.1971 282.4336 0001393 086.6781 273.4572 14.58548670298637
Epoch (UTC): 26 July 2017 18:56:24
Eccentricity: 0.0001393
inclination: 98.1971°
perigee height: 697 km
apogee height: 699 km
right ascension of ascending node: 282.4336°
argument of perigee: 86.6781°
revolutions per day: 14.58548670
mean anomaly at epoch: 273.4572°
orbit number at epoch: 29863

The dashed part of the orbit path shows where the satellite is in the earth's shadow,  

DLR